AirNav   Phillips 66 Aviation Fuel
 
 999 users online  

1TE9 RMR Ranch Airport
Franklin, Texas, USA

GOING TO FRANKLIN?


FAA INFORMATION EFFECTIVE 24 MAY 2018

Location

FAA Identifier: 1TE9
Lat/Long: 31-16-18.3000N / 096-26-22.7397W
31-16.305000N / 096-26.378995W
31.2717500 / -96.4396499
(estimated)
Elevation: 420 ft. / 128 m (estimated)
Variation: 05E (2000)
From city: 15 miles NNE of FRANKLIN, TX
Time zone: UTC -5 (UTC -6 during Standard Time)
Zip code: 77856

Airport Operations

Airport use: Private use. Permission required prior to landing
Activation date: 11/2002
Control tower: no
ARTCC: HOUSTON CENTER
FSS: MONTGOMERY COUNTY FLIGHT SERVICE STATION
Attendance: UNATNDD
Segmented circle: no

Nearby radio navigation aids

VOR radial/distance  VOR name  Freq  Var
GNLr158/19.4GROESBECK VOR/DME108.8005E
LOAr282/25.8LEONA VORTAC110.8008E

 
NDB name  Hdg/Dist  Freq  Var  ID
MEXIA166/22.432904ELXY .-.. -..- -.--
ROBINSON106/35.140007EROB .-. --- -...
PYRAMID193/37.641806EPYF .--. -.-- ..-.

Airport Services

Runway Information

Runway 15/33

Dimensions: 1563 x 150 ft. / 476 x 46 m
Surface: turf
RUNWAY 15  RUNWAY 33
Latitude: 31-16.422000N31-16.188000N
Longitude: 096-26.442000W096-26.315990W
Traffic pattern: leftleft
Displaced threshold: 200 ft.no

Airport Ownership and Management from official FAA records

Ownership: Privately-owned
Owner: RAY FIELD
13140 STATE HWY 7, PO BOX 692
FRANKLIN, TX 77856
Phone (979) 676-1650
SECONDARY PHONE: 713-297-1397
Manager: RAY FIELD
PO BOX 692
FRANKLIN, TX 77856
Phone (979) 676-1650
SECONDARY PHONE: 713-297-1397

Airport Operational Statistics

Aircraft based on the field: 5
Single engine airplanes: 1
Multi engine airplanes: 1
Helicopters: 1
Ultralights: 2
    

Additional Remarks

LARGE MOBILE MINING AND OILFIELD EQPT INVOF ARPT AFFECTING NORTH AND SOUTH APCHS. CALL ARPT FOR UPDATED OBSTN DATA BEFORE FLIGHT.

Instrument Procedures

There are no published instrument procedures at 1TE9.

Some nearby airports with instrument procedures:

T15 - Marlin Airport (22 nm W)
KLXY - Mexia-Limestone County Airport (22 nm N)
KLHB - Hearne Municipal Airport (26 nm S)
51R - Madisonville Municipal Airport (33 nm SE)
KCFD - Coulter Field Airport (34 nm S)
 
Loc | Ops | Rwys | IFR | FBO | Links
Com | Nav | Svcs | Stats | Notes

AirNav Hotels Sweepstakes
 
Area around 1TE9 (RMR Ranch Airport)
 
Road maps at: MapQuest Bing Google
 
Aerial photo
No photo
 
Sectional chart

 
Airport distance calculator
Flying to RMR Ranch Airport? Find the distance to fly.

From to 1TE9

Sunrise and sunset
Times for 24-May-2018
 Local
(UTC-5)
 Zulu
(UTC)
Morning civil twilight05:5910:59
Sunrise06:2611:26
Sunset20:1901:19
Evening civil twilight20:4601:46

Current date and time
Zulu (UTC)  25-May-2018 00:02:07
Local (UTC-5)  24-May-2018 19:02:07
 
METAR
KLXY 
22nm N 
242355Z AUTO 15004KT 10SM CLR 31/19 A2998 RMK AO2 T03080187 10316 20283
KLHB 
26nm S 
242355Z AUTO 10003KT 10SM CLR 31/20 A2998 RMK AO2 T03050202 10324 20297
KCFD 
34nm S 
242355Z AUTO 11009KT 10SM CLR 29/22 A2999 RMK AO2 T02940215 10316 20282
KT35 
36nm SW 
242355Z AUTO 13003KT 10SM CLR 32/20 A2997 RMK AO2 T03180196 10329 20287
KCNW 
39nm NW 
242355Z 00000KT 10SM SCT055 30/19 A2997
KCLL 
41nm S 
242353Z 13007KT 10SM FEW050 32/21 A2997 RMK AO2 SLP142 T03170206 10322 20289 56012
TAF
KCLL 
41nm S 
241721Z 2418/2518 13006KT P6SM VCTS SCT040CB FM250100 VRB03KT P6SM SCT250 FM251700 20004KT P6SM SCT040
KACT 
46nm NW 
242056Z 2421/2518 17006KT P6SM SCT300 TEMPO 2512/2515 BKN012 FM251500 20006KT P6SM SCT025
NOTAMs
Click for the latest NOTAMs
NOTAMs are issued by the DoD/FAA and will open in a separate window not controlled by AirNav.

 

 
 

Would you like to see your business listed on this page?

 If your business provides an interesting product or service to pilots, flight crews, aircraft, or users of the RMR Ranch Airport, you should consider listing it here.  To start the listing process, click on the button below
 
Add a business
 

Other Pages about RMR Ranch Airport

Update a link
 
Copyright © AirNav, LLC. All rights reserved. Privacy Policy  Contact